sat.trackr.live / text

‹ back to catalog

STARLINK-1784

NORAD 46687 · 2020-073T

PAYLOAD ACTIVE UNKNOWN

§ Identity

Operator
Country
US
Launch date
2020-10-18
Launch site
AFETR
Launch vehicle
Mass (kg)
RCS (m²)

Purposes: comms

External: N2YO · Heavens-Above · Gunter

§ Orbital elements

Epoch: 2026-07-12T16:23:35.120832Z

Period
88.41 min
Inclination
53.0206°
Eccentricity
0.0012083
Mean motion
16.28747795 rev/d
Perigee alt
188.0 km
Apogee alt
203.9 km
Semi-major
6,574.0 km
B*
9.1056e-4
RAAN
279.9352°
Arg perigee
324.1039°
Mean anomaly
35.9190°
Rev number
31,765

§ Raw data

STARLINK-17841 46687U 20073T   26193.68304538  .03871510  12093-4  91056-3 0  99992 46687  53.0206 279.9352 0012083 324.1039  35.9190 16.28747795317657

JSON: /api/v1/satellites/46687 · /tle

For live sub-satellite position, see the globe view (requires WebGL).

§ Visibility from observer

Set your observer location to see the next 7 days of passes ≥ 10°. The values pass through the URL so the page stays shareable.

No JS? Fill the form by hand. The geolocation button needs JavaScript.